Location: Cerda�ola
(41.4919°N, 2.1403°E)
Time: 20:11:06
(UTC+00:00)

Lacrosse 4 Rocket - Pass Details

Date: 19 August 2020
Orbit: 544 x 615 km, 68.0° (Epoch: 01 October)

Event Time Altitude Azimuth Distance (km) Brightness Sun altitude
Rises 21:47:46 0° 244° (WSW) 2,796 5.0 -28.7°
Reaches altitude 10° 21:50:31 10° 262° (W) 1,886 4.3 -29.0°
Maximum altitude 21:53:38 20° 310° (NW) 1,358 4.0 -29.3°
Drops below altitude 10° 21:56:43 10° 358° (N) 1,862 4.7 -29.6°
Sets 21:59:25 0° 16° (NNE) 2,749 5.4 -29.9°
